Location: Newark
(41.8083°N, 72.2500°W)
Time: 21:26:51
(UTC+00:00)

Courier 1B - Pass Details

Date: 01 December 2021
Orbit: 962 x 1209 km, 28.3° (Epoch: 19 January)

Event Time Altitude Azimuth Distance (km) Brightness Sun altitude
Rises 00:22:47 0° 245° (WSW) 3,877 11.5 -33.6°
Reaches altitude 10° 00:26:04 10° 233° (SW) 2,877 10.5 -34.2°
Enters shadow 00:30:30 25° 195° (SSW) 1,956 9.1 -35.0°
Maximum altitude 00:31:38 26° 180° (S) 1,896 - -35.2°
Drops below altitude 10° 00:36:58 10° 127° (SE) 2,748 - -36.2°
Sets 00:40:01 0° 114° (ESE) 3,670 - -36.8°
